Home > Weather > Mombasa > Past weeks

Flag for Kenya Weather for the Past 2 Weeks in Mombasa, Kenya

Now
88 °F

Broken clouds.


Feels Like: 96 °F
Forecast: 78 / 91 °F
Wind: 3 mph from North

Location: Mombasa Airport

Current Time: Feb 8, 2016 at 11:47:50 AM

Latest Report: Feb 8, 2016 at 11:00 AM


Visibility: N/A

Pressure: 29.89 "Hg

Humidity: 62%

Dew point: 73 °F

Location of MombasaLocation

Historic Weather in Mombasa — Graph

°F

Mombasa Temperature Yesterday

Maximum temperature yesterday: 91 °F (at 12:00 PM)
Minimum temperature yesterday: 75 °F (at 4:00 AM)
Average temperature yesterday: 82 °F

High & Low Weather Summary for the Past Weeks

 TemperatureHumidityPressure
High95 °F (Feb 3, 1:00 PM)100% (Feb 3, 10:00 AM)30.01 "Hg (Feb 3, 10:00 AM)
Low73 °F (Jan 26, 6:00 AM)39% (Feb 6, 7:00 PM)29.74 "Hg (Jan 27, 4:00 PM)
Average83 °F74%29.87 "Hg
* Reported Jan 24 10:00 AM — Feb 8 10:00 AM, Mombasa, Weather by CustomWeather, © 2016

Note: Actual official high and low records may vary slightly from our data, if they occured in-between our weather recording intervals... More about our weather records

Advertising

Mombasa Weather History for the Previous 24 Hours

 ConditionsComfort  
Time TempWeatherWind HumidityBarometerVisibility
10:00 AM
Mon, Feb 8
84 °FBroken clouds.3 mph66%29.92 "HgN/A
9:00 AM82 °FBroken clouds.6 mph74%29.92 "HgN/A
8:00 AM79 °FPartly sunny.6 mph79%29.92 "HgN/A
7:00 AM77 °FScattered clouds.6 mph83%29.89 "HgN/A
6:00 AM77 °FPassing clouds.6 mph89%29.86 "HgN/A
5:00 AM77 °FClear.3 mph89%29.83 "Hg10 mi
4:00 AM77 °FPassing clouds.5 mph89%29.83 "HgN/A
3:00 AM79 °FPassing clouds.3 mph84%29.86 "HgN/A
2:00 AM77 °FPassing clouds.5 mph89%29.86 "HgN/A
1:00 AM77 °FPassing clouds.5 mph89%29.86 "HgN/A
12:00 AM79 °FPassing clouds.3 mph84%29.89 "HgN/A
11:00 PM
Sun, Feb 7
79 °FClear.6 mph84%29.89 "HgN/A
10:00 PM79 °FClear.9 mph84%29.89 "HgN/A
9:00 PM79 °FClear.8 mph84%29.86 "HgN/A
8:00 PM81 °FClear.10 mph79%29.83 "HgN/A
7:00 PM82 °FClear.15 mph70%29.80 "HgN/A
6:00 PM84 °FSunny.15 mph62%29.77 "HgN/A
5:00 PM86 °FSunny.15 mph59%29.77 "HgN/A
4:00 PM90 °FSunny.14 mph55%29.77 "HgN/A
3:00 PM90 °FPassing clouds.14 mph55%29.80 "HgN/A
2:00 PM90 °FPassing clouds.14 mph52%29.83 "HgN/A
1:00 PM90 °FPassing clouds.13 mph52%29.86 "HgN/A
12:00 PM91 °FPassing clouds.6 mph49%29.92 "HgN/A
11:00 AM90 °FScattered clouds.7 mph52%29.95 "HgN/A
Weather by CustomWeather, © 2016

See weather overviewHow to use our weather pages